Time,TemperatureF,DewpointF,PressureIn,WindDirection,WindDirectionDegrees,WindSpeedMPH,WindSpeedGustMPH,Humidity,HourlyPrecipIn,Conditions,Clouds,dailyrainin,SoftwareType,DateUTC
2013-08-04 00:02:00,56.0,53.0,30.05,ENE,61,1.0,1.0,89,-99.99,,,-99.99,,2013-08-04 07:02:00,
2013-08-04 00:12:00,56.0,53.0,30.05,NNE,12,1.0,1.0,89,-99.99,,,-99.99,,2013-08-04 07:12:00,
2013-08-04 00:22:00,56.0,53.0,30.05,North,7,1.0,1.0,90,-99.99,,,-99.99,,2013-08-04 07:22:00,
2013-08-04 00:32:00,56.0,53.0,30.05,NNE,20,1.0,1.0,90,-99.99,,,-99.99,,2013-08-04 07:32:00,
2013-08-04 00:42:00,56.0,53.0,30.04,NNE,14,1.0,2.0,90,-99.99,,,-99.99,,2013-08-04 07:42:00,
2013-08-04 00:52:00,56.0,53.0,30.04,North,8,1.0,2.0,91,-99.99,,,-99.99,,2013-08-04 07:52:00,
2013-08-04 01:02:00,55.0,53.0,30.04,NNW,342,2.0,2.0,91,-99.99,,,-99.99,,2013-08-04 08:02:00,
2013-08-04 01:11:00,55.0,53.0,30.04,NNW,328,1.0,1.0,91,-99.99,,,-99.99,,2013-08-04 08:11:00,
2013-08-04 01:22:00,56.0,53.0,30.04,NE,55,1.0,1.0,92,-99.99,,,-99.99,,2013-08-04 08:22:00,
2013-08-04 01:32:00,55.0,53.0,30.04,NE,49,2.0,2.0,91,-99.99,,,-99.99,,2013-08-04 08:32:00,
2013-08-04 01:43:00,55.0,53.0,30.04,NNE,30,1.0,2.0,92,-99.99,,,-99.99,,2013-08-04 08:43:00,
2013-08-04 01:53:00,55.0,53.0,30.04,SW,224,2.0,2.0,92,-99.99,,,-99.99,,2013-08-04 08:53:00,
2013-08-04 02:02:00,55.0,53.0,30.04,SSW,199,1.0,1.0,93,-99.99,,,-99.99,,2013-08-04 09:02:00,
2013-08-04 02:12:00,56.0,54.0,30.04,SSW,205,1.0,1.0,93,-99.99,,,-99.99,,2013-08-04 09:12:00,
2013-08-04 02:22:00,56.0,54.0,30.04,SSW,197,1.0,1.0,93,-99.99,,,-99.99,,2013-08-04 09:22:00,
2013-08-04 02:32:00,56.0,54.0,30.04,South,174,1.0,1.0,93,-99.99,,,-99.99,,2013-08-04 09:32:00,
2013-08-04 02:43:00,56.0,54.0,30.04,SSW,202,1.0,1.0,93,-99.99,,,-99.99,,2013-08-04 09:43:00,
2013-08-04 02:52:00,56.0,54.0,30.04,South,170,1.0,1.0,94,-99.99,,,-99.99,,2013-08-04 09:52:00,
2013-08-04 03:02:00,56.0,54.0,30.04,SSE,154,1.0,1.0,94,-99.99,,,-99.99,,2013-08-04 10:02:00,
2013-08-04 03:12:00,56.0,55.0,30.04,SSE,150,1.0,2.0,94,-99.99,,,-99.99,,2013-08-04 10:12:00,
2013-08-04 03:22:00,56.0,55.0,30.04,SSE,158,1.0,1.0,94,-99.99,,,-99.99,,2013-08-04 10:22:00,
2013-08-04 03:32:00,56.0,55.0,30.04,SSE,158,1.0,1.0,94,-99.99,,,-99.99,,2013-08-04 10:32:00,
2013-08-04 03:42:00,56.0,55.0,30.04,SSW,195,0.0,1.0,95,-99.99,,,-99.99,,2013-08-04 10:42:00,
2013-08-04 03:53:00,56.0,55.0,30.04,NNW,333,0.0,1.0,95,-99.99,,,-99.99,,2013-08-04 10:53:00,
2013-08-04 04:02:00,57.0,55.0,30.04,NW,314,1.0,2.0,95,-99.99,,,-99.99,,2013-08-04 11:02:00,
2013-08-04 04:12:00,57.0,55.0,30.04,North,350,1.0,2.0,95,-99.99,,,-99.99,,2013-08-04 11:12:00,
2013-08-04 04:22:00,56.0,55.0,30.04,NNW,340,1.0,1.0,95,-99.99,,,-99.99,,2013-08-04 11:22:00,
2013-08-04 04:42:00,56.0,55.0,30.03,NNW,337,1.0,1.0,95,-99.99,,,-99.99,,2013-08-04 11:42:00,
2013-08-04 04:52:00,57.0,55.0,30.04,WSW,254,1.0,2.0,95,-99.99,,,-99.99,,2013-08-04 11:52:00,
2013-08-04 05:02:00,57.0,55.0,30.04,NNW,328,1.0,3.0,95,-99.99,,,-99.99,,2013-08-04 12:02:00,
2013-08-04 05:12:00,57.0,55.0,30.04,NW,314,3.0,4.0,95,-99.99,,,-99.99,,2013-08-04 12:12:00,
2013-08-04 05:22:00,56.0,55.0,30.04,NW,320,3.0,4.0,95,-99.99,,,-99.99,,2013-08-04 12:22:00,
2013-08-04 05:32:00,56.0,55.0,30.04,NW,307,2.0,3.0,95,-99.99,,,-99.99,,2013-08-04 12:32:00,
2013-08-04 05:43:00,56.0,55.0,30.04,NW,318,2.0,2.0,95,-99.99,,,-99.99,,2013-08-04 12:43:00,
2013-08-04 05:53:00,56.0,55.0,30.04,NNW,332,2.0,2.0,95,-99.99,,,-99.99,,2013-08-04 12:53:00,
2013-08-04 06:02:00,56.0,55.0,30.04,NNW,331,2.0,3.0,95,-99.99,,,-99.99,,2013-08-04 13:02:00,
2013-08-04 06:12:00,56.0,55.0,30.04,NW,321,2.0,5.0,95,-99.99,,,-99.99,,2013-08-04 13:12:00,
2013-08-04 06:22:00,56.0,55.0,30.04,NW,324,2.0,4.0,95,-99.99,,,-99.99,,2013-08-04 13:22:00,
2013-08-04 06:32:00,56.0,55.0,30.04,NNW,327,3.0,4.0,95,-99.99,,,-99.99,,2013-08-04 13:32:00,
2013-08-04 06:43:00,56.0,55.0,30.04,NNW,329,2.0,4.0,95,-99.99,,,-99.99,,2013-08-04 13:43:00,
2013-08-04 06:52:00,56.0,55.0,30.04,NNW,327,2.0,3.0,95,-99.99,,,-99.99,,2013-08-04 13:52:00,
2013-08-04 07:02:00,56.0,55.0,30.04,NNW,333,2.0,3.0,96,-99.99,,,-99.99,,2013-08-04 14:02:00,
2013-08-04 07:12:00,56.0,55.0,30.04,NNW,331,2.0,3.0,96,-99.99,,,-99.99,,2013-08-04 14:12:00,
2013-08-04 07:22:00,56.0,55.0,30.04,NNW,338,2.0,2.0,96,-99.99,,,-99.99,,2013-08-04 14:22:00,
2013-08-04 07:32:00,56.0,55.0,30.04,NNW,339,2.0,3.0,96,-99.99,,,-99.99,,2013-08-04 14:32:00,
2013-08-04 07:43:00,56.0,55.0,30.04,NNW,345,2.0,2.0,96,-99.99,,,-99.99,,2013-08-04 14:43:00,
2013-08-04 07:53:00,57.0,56.0,30.04,NNW,338,1.0,2.0,96,-99.99,,,-99.99,,2013-08-04 14:53:00,
2013-08-04 08:02:00,57.0,56.0,30.05,NNW,347,2.0,3.0,96,-99.99,,,-99.99,,2013-08-04 15:02:00,
2013-08-04 08:12:00,57.0,56.0,30.05,NNW,340,2.0,3.0,96,-99.99,,,-99.99,,2013-08-04 15:12:00,
2013-08-04 08:22:00,57.0,56.0,30.05,NNW,335,2.0,2.0,96,-99.99,,,-99.99,,2013-08-04 15:22:00,
2013-08-04 08:32:00,57.0,56.0,30.05,North,351,1.0,2.0,96,-99.99,,,-99.99,,2013-08-04 15:32:00,
2013-08-04 08:42:00,57.0,56.0,30.05,NNW,344,1.0,3.0,96,-99.99,,,-99.99,,2013-08-04 15:42:00,
2013-08-04 08:53:00,58.0,57.0,30.05,NNW,342,1.0,1.0,96,-99.99,,,-99.99,,2013-08-04 15:53:00,
2013-08-04 09:12:00,58.0,56.0,30.05,NW,315,2.0,3.0,95,-99.99,,,-99.99,,2013-08-04 16:12:00,
2013-08-04 09:22:00,58.0,56.0,30.05,NW,315,2.0,3.0,95,-99.99,,,-99.99,,2013-08-04 16:22:00,
2013-08-04 09:32:00,58.0,57.0,30.05,North,359,2.0,4.0,94,-99.99,,,-99.99,,2013-08-04 16:32:00,
2013-08-04 09:42:00,58.0,57.0,30.05,NNW,334,4.0,5.0,94,-99.99,,,-99.99,,2013-08-04 16:42:00,
2013-08-04 09:53:00,59.0,57.0,30.05,NNW,328,3.0,5.0,93,-99.99,,,-99.99,,2013-08-04 16:53:00,
2013-08-04 10:02:00,59.0,57.0,30.05,NW,312,2.0,4.0,92,-99.99,,,-99.99,,2013-08-04 17:02:00,
2013-08-04 10:12:00,59.0,57.0,30.05,NW,316,4.0,5.0,91,-99.99,,,-99.99,,2013-08-04 17:12:00,
2013-08-04 10:22:00,59.0,56.0,30.05,NW,324,2.0,4.0,89,-99.99,,,-99.99,,2013-08-04 17:22:00,
2013-08-04 10:32:00,60.0,57.0,30.05,NW,311,3.0,5.0,89,-99.99,,,-99.99,,2013-08-04 17:32:00,
2013-08-04 10:43:00,60.0,56.0,30.05,North,358,3.0,5.0,88,-99.99,,,-99.99,,2013-08-04 17:43:00,
2013-08-04 10:53:00,60.0,56.0,30.05,NNW,347,3.0,5.0,87,-99.99,,,-99.99,,2013-08-04 17:53:00,
2013-08-04 11:02:00,60.0,57.0,30.05,NNW,328,3.0,5.0,87,-99.99,,,-99.99,,2013-08-04 18:02:00,
2013-08-04 11:12:00,61.0,57.0,30.05,NW,316,4.0,5.0,86,-99.99,,,-99.99,,2013-08-04 18:12:00,
2013-08-04 11:22:00,61.0,57.0,30.05,NNW,336,3.0,6.0,84,-99.99,,,-99.99,,2013-08-04 18:22:00,
2013-08-04 11:33:00,61.0,56.0,30.05,NW,321,4.0,7.0,83,-99.99,,,-99.99,,2013-08-04 18:33:00,
2013-08-04 11:42:00,61.0,56.0,30.05,NNW,345,4.0,6.0,83,-99.99,,,-99.99,,2013-08-04 18:42:00,
2013-08-04 11:52:00,62.0,56.0,30.05,NNW,347,3.0,5.0,82,-99.99,,,-99.99,,2013-08-04 18:52:00,
2013-08-04 12:02:00,62.0,56.0,30.05,NW,320,4.0,6.0,81,-99.99,,,-99.99,,2013-08-04 19:02:00,
2013-08-04 12:12:00,63.0,57.0,30.05,NNW,334,3.0,6.0,80,-99.99,,,-99.99,,2013-08-04 19:12:00,
2013-08-04 12:22:00,63.0,56.0,30.05,NNW,328,2.0,5.0,80,-99.99,,,-99.99,,2013-08-04 19:22:00,
2013-08-04 12:33:00,63.0,56.0,30.05,NW,326,3.0,5.0,78,-99.99,,,-99.99,,2013-08-04 19:33:00,
2013-08-04 12:43:00,63.0,57.0,30.05,NNW,327,5.0,6.0,78,-99.99,,,-99.99,,2013-08-04 19:43:00,
2013-08-04 12:52:00,64.0,56.0,30.05,NNW,328,6.0,9.0,77,-99.99,,,-99.99,,2013-08-04 19:52:00,
2013-08-04 13:02:00,64.0,57.0,30.05,NW,325,6.0,8.0,76,-99.99,,,-99.99,,2013-08-04 20:02:00,
2013-08-04 13:12:00,65.0,57.0,30.05,NNW,332,5.0,7.0,75,-99.99,,,-99.99,,2013-08-04 20:12:00,
2013-08-04 13:22:00,65.0,57.0,30.04,NNW,336,5.0,8.0,75,-99.99,,,-99.99,,2013-08-04 20:22:00,
2013-08-04 13:32:00,65.0,57.0,30.04,NNW,336,5.0,8.0,75,-99.99,,,-99.99,,2013-08-04 20:32:00,
2013-08-04 13:42:00,66.0,57.0,30.04,NNW,329,6.0,8.0,72,-99.99,,,-99.99,,2013-08-04 20:42:00,
2013-08-04 13:53:00,67.0,57.0,30.04,NNW,335,7.0,9.0,71,-99.99,,,-99.99,,2013-08-04 20:53:00,
2013-08-04 14:02:00,67.0,57.0,30.04,NW,318,7.0,11.0,69,-99.99,,,-99.99,,2013-08-04 21:02:00,
2013-08-04 14:12:00,68.0,57.0,30.04,NW,322,8.0,13.0,68,-99.99,,,-99.99,,2013-08-04 21:12:00,
2013-08-04 14:22:00,68.0,56.0,30.04,NNW,331,9.0,13.0,66,-99.99,,,-99.99,,2013-08-04 21:22:00,
2013-08-04 14:32:00,69.0,57.0,30.04,NW,323,7.0,13.0,66,-99.99,,,-99.99,,2013-08-04 21:32:00,
2013-08-04 14:43:00,69.0,57.0,30.04,NNW,332,8.0,13.0,65,-99.99,,,-99.99,,2013-08-04 21:43:00,
2013-08-04 14:53:00,70.0,57.0,30.04,NNW,336,10.0,16.0,63,-99.99,,,-99.99,,2013-08-04 21:53:00,
2013-08-04 15:01:00,70.0,57.0,30.04,NNW,328,10.0,15.0,64,-99.99,,,-99.99,,2013-08-04 22:01:00,
2013-08-04 15:12:00,70.0,57.0,30.04,NNW,332,10.0,17.0,64,-99.99,,,-99.99,,2013-08-04 22:12:00,
2013-08-04 15:22:00,70.0,57.0,30.04,NNW,332,10.0,17.0,64,-99.99,,,-99.99,,2013-08-04 22:22:00,
2013-08-04 15:32:00,69.0,56.0,30.03,NNW,329,10.0,15.0,63,-99.99,,,-99.99,,2013-08-04 22:32:00,
2013-08-04 15:43:00,69.0,56.0,30.03,NW,317,12.0,17.0,63,-99.99,,,-99.99,,2013-08-04 22:43:00,
2013-08-04 15:53:00,69.0,57.0,30.03,NNW,337,10.0,15.0,66,-99.99,,,-99.99,,2013-08-04 22:53:00,
2013-08-04 16:02:00,68.0,56.0,30.03,NNW,327,11.0,15.0,64,-99.99,,,-99.99,,2013-08-04 23:02:00,
2013-08-04 16:11:00,68.0,56.0,30.03,NW,326,11.0,19.0,67,-99.99,,,-99.99,,2013-08-04 23:11:00,
2013-08-04 16:22:00,67.0,56.0,30.03,NNW,328,10.0,18.0,68,-99.99,,,-99.99,,2013-08-04 23:22:00,
2013-08-04 16:32:00,67.0,55.0,30.02,NW,311,12.0,19.0,66,-99.99,,,-99.99,,2013-08-04 23:32:00,
2013-08-04 16:43:00,67.0,56.0,30.02,NW,321,10.0,18.0,68,-99.99,,,-99.99,,2013-08-04 23:43:00,
2013-08-04 16:53:00,67.0,56.0,30.02,NW,319,9.0,15.0,66,-99.99,,,-99.99,,2013-08-04 23:53:00,
2013-08-04 17:01:00,67.0,56.0,30.02,NW,315,9.0,16.0,69,-99.99,,,-99.99,,2013-08-05 00:01:00,
2013-08-04 17:12:00,66.0,56.0,30.02,NW,312,9.0,16.0,69,-99.99,,,-99.99,,2013-08-05 00:12:00,
2013-08-04 17:22:00,66.0,55.0,30.02,NW,308,11.0,18.0,69,-99.99,,,-99.99,,2013-08-05 00:22:00,
2013-08-04 17:32:00,65.0,55.0,30.02,NW,308,11.0,17.0,70,-99.99,,,-99.99,,2013-08-05 00:32:00,
2013-08-04 17:42:00,64.0,55.0,30.02,NW,310,11.0,16.0,72,-99.99,,,-99.99,,2013-08-05 00:42:00,
2013-08-04 17:52:00,63.0,55.0,30.02,NW,307,10.0,17.0,73,-99.99,,,-99.99,,2013-08-05 00:52:00,
2013-08-04 18:02:00,63.0,55.0,30.02,NW,315,8.0,17.0,76,-99.99,,,-99.99,,2013-08-05 01:02:00,
2013-08-04 18:12:00,62.0,55.0,30.02,NW,311,9.0,14.0,76,-99.99,,,-99.99,,2013-08-05 01:12:00,
2013-08-04 18:22:00,62.0,55.0,30.02,NW,313,7.0,12.0,78,-99.99,,,-99.99,,2013-08-05 01:22:00,
2013-08-04 18:33:00,61.0,55.0,30.02,WNW,300,9.0,15.0,78,-99.99,,,-99.99,,2013-08-05 01:33:00,
2013-08-04 18:42:00,61.0,54.0,30.01,NW,313,8.0,15.0,79,-99.99,,,-99.99,,2013-08-05 01:42:00,
2013-08-04 18:52:00,61.0,55.0,30.01,WNW,302,7.0,11.0,81,-99.99,,,-99.99,,2013-08-05 01:52:00,
2013-08-04 19:02:00,60.0,55.0,30.01,NW,314,7.0,13.0,82,-99.99,,,-99.99,,2013-08-05 02:02:00,
2013-08-04 19:12:00,60.0,54.0,30.01,NW,308,9.0,16.0,82,-99.99,,,-99.99,,2013-08-05 02:12:00,
2013-08-04 19:22:00,59.0,54.0,30.01,NW,307,9.0,15.0,83,-99.99,,,-99.99,,2013-08-05 02:22:00,
2013-08-04 19:33:00,59.0,54.0,30.01,WNW,297,5.0,10.0,85,-99.99,,,-99.99,,2013-08-05 02:33:00,
2013-08-04 19:42:00,58.0,54.0,30.01,NW,306,8.0,12.0,85,-99.99,,,-99.99,,2013-08-05 02:42:00,
2013-08-04 19:53:00,58.0,54.0,30.01,WNW,299,7.0,13.0,86,-99.99,,,-99.99,,2013-08-05 02:53:00,
2013-08-04 20:02:00,58.0,54.0,30.01,NW,304,6.0,11.0,86,-99.99,,,-99.99,,2013-08-05 03:02:00,
2013-08-04 20:12:00,58.0,54.0,30.01,NW,307,8.0,13.0,87,-99.99,,,-99.99,,2013-08-05 03:12:00,
2013-08-04 20:22:00,57.0,54.0,30.01,WNW,293,4.0,8.0,88,-99.99,,,-99.99,,2013-08-05 03:22:00,
2013-08-04 20:32:00,57.0,54.0,30.01,WNW,293,6.0,9.0,88,-99.99,,,-99.99,,2013-08-05 03:32:00,
2013-08-04 20:42:00,57.0,54.0,30.01,WNW,284,4.0,7.0,89,-99.99,,,-99.99,,2013-08-05 03:42:00,
2013-08-04 20:52:00,57.0,54.0,30.01,West,274,3.0,7.0,89,-99.99,,,-99.99,,2013-08-05 03:52:00,
2013-08-04 21:02:00,57.0,54.0,30.01,West,281,4.0,6.0,89,-99.99,,,-99.99,,2013-08-05 04:02:00,
2013-08-04 21:12:00,57.0,53.0,30.02,WNW,300,4.0,5.0,89,-99.99,,,-99.99,,2013-08-05 04:12:00,
2013-08-04 21:22:00,57.0,54.0,30.02,WNW,287,3.0,6.0,89,-99.99,,,-99.99,,2013-08-05 04:22:00,
2013-08-04 21:32:00,57.0,54.0,30.02,WNW,296,3.0,4.0,89,-99.99,,,-99.99,,2013-08-05 04:32:00,
2013-08-04 21:43:00,57.0,54.0,30.02,WNW,293,4.0,6.0,90,-99.99,,,-99.99,,2013-08-05 04:43:00,
2013-08-04 22:02:00,57.0,54.0,30.02,WNW,300,4.0,6.0,90,-99.99,,,-99.99,,2013-08-05 05:02:00,
2013-08-04 22:12:00,57.0,54.0,30.02,WNW,303,3.0,4.0,89,-99.99,,,-99.99,,2013-08-05 05:12:00,
2013-08-04 22:22:00,57.0,54.0,30.03,NNW,330,3.0,4.0,90,-99.99,,,-99.99,,2013-08-05 05:22:00,
2013-08-04 22:32:00,56.0,54.0,30.03,NNW,336,3.0,3.0,90,-99.99,,,-99.99,,2013-08-05 05:32:00,
2013-08-04 22:43:00,56.0,54.0,30.03,NW,319,3.0,4.0,90,-99.99,,,-99.99,,2013-08-05 05:43:00,
2013-08-04 22:53:00,56.0,54.0,30.03,NNW,337,2.0,2.0,90,-99.99,,,-99.99,,2013-08-05 05:53:00,
2013-08-04 23:01:00,56.0,54.0,30.03,NNW,330,2.0,3.0,90,-99.99,,,-99.99,,2013-08-05 06:01:00,
2013-08-04 23:12:00,56.0,54.0,30.03,NNW,327,2.0,4.0,91,-99.99,,,-99.99,,2013-08-05 06:12:00,
2013-08-04 23:21:00,56.0,54.0,30.03,NNW,329,3.0,4.0,91,-99.99,,,-99.99,,2013-08-05 06:21:00,
2013-08-04 23:32:00,56.0,54.0,30.03,NNW,327,2.0,4.0,91,-99.99,,,-99.99,,2013-08-05 06:32:00,
2013-08-04 23:42:00,56.0,54.0,30.03,NW,322,3.0,4.0,91,-99.99,,,-99.99,,2013-08-05 06:42:00,
2013-08-04 23:52:00,56.0,54.0,30.03,NNW,341,3.0,4.0,92,-99.99,,,-99.99,,2013-08-05 06:52:00,